Regional Weather Roundup
Issued by NWS

Home | Current Version | Previous Version | Text Only | Print | Product List | Glossary Off
Versions: 1 2 3 4 5 6 7 8 9 10 11 12 13 14 15 16 17 18 19 20 21 22 23 24 25 26 27 28 29 30 31 32 33 34 35 36 37 38 39 40 41 42 43 44 45 46 47 48 49 50

000
ASUS43 KLMK 191210
RWRKY
KENTUCKY REGIONAL WEATHER ROUNDUP
NATIONAL WEATHER SERVICE LOUISVILLE KY
800 AM EDT TUE SEP 19 2017

NOTE "FAIR" INDICATES FEW OR NO CLOUDS BELOW 12,000 FEET
WITH NO SIGNIFICANT WEATHER AND/OR OBSTRUCTIONS TO VISIBILITY.

KYZ001>023-026-027-061>063-070>075-191300-
WESTERN AND SOUTH CENTRAL KENTUCKY

CITY           SKY/WX    TMP DP  RH WIND       PRES   REMARKS
PADUCAH        CLOUDY    69  67  93 CALM      29.93S FOG
HENDERSON      CLOUDY    69  68  96 CALM      29.97R FOG
OWENSBORO      LGT RAIN  69  68  96 SE6       29.97R
HOPKINSVILLE   MOCLDY    72  68  88 S3        29.96R
BOWLING GREEN  MOCLDY    69  68  96 CALM      29.97S
GLASGOW        CLOUDY   N/A N/A N/A CALM      29.98S HAZE
$$

KYZ024-025-028>034-038-045-046-053-191300-
NORTH CENTRAL KENTUCKY

CITY           SKY/WX    TMP DP  RH WIND       PRES   REMARKS
LOUISVILLE/SDF MOCLDY    73  68  84 CALM      29.96R
LOUISVILLE/LOU LGT RAIN  71  71 100 CALM      29.97R
FORT KNOX      LGT RAIN  68  68 100 W3        29.97R FOG
$$

KYZ035>037-039>044-047>052-055>060-089>105-191300-
NORTHEAST KENTUCKY

CITY           SKY/WX    TMP DP  RH WIND       PRES   REMARKS
LEXINGTON      MOCLDY    69  63  81 S6        30.00R
COVINGTON      CLOUDY    70  67  90 S7        29.98R
FRANKFORT      HVY RAIN  70  66  87 S7        29.98R FOG
$$

KYZ054-064>069-076>088-106>120-191300-
SOUTHEAST KENTUCKY

CITY           SKY/WX    TMP DP  RH WIND       PRES   REMARKS
JACKSON        CLOUDY    64  60  87 CALM      30.03R
LONDON         CLOUDY    63  62  97 CALM      30.03R FOG
SOMERSET         N/A     61  61 100 CALM      30.02S FOG
MIDDLESBORO    FOG       61  61 100 CALM      30.07R VSB 1/2
MONTICELLO     SUNNY     60  60 100 W7        30.03S FOG
$$





USA.gov is the U.S. government's official web portal to all federal, state and local government web resources and services.